| time (UTC) | temp C | wind direction | speed KPH | gust KPH | rain 1hr cm | rain 24hr cm | rain mn cm | humidity % | barometer mb |
| 20260906095350 | 21 | 101 | 0.0 | 0.0 | 0.00 | 0.00 | 0.00 | 99 | 1012.7 |
| 20260906094850 | 21 | 102 | 0.0 | 0.0 | 0.00 | 0.00 | 0.00 | 99 | 1013.1 |
| 20260906094344 | 21 | 101 | 0.0 | 0.0 | 0.00 | 0.00 | 0.00 | 99 | 1012.8 |
| 20260906093836 | 21 | 102 | 0.0 | 0.0 | 0.00 | 0.00 | 0.00 | 99 | 1012.9 |
| 20260906093331 | 21 | 103 | 0.0 | 0.0 | 0.00 | 0.00 | 0.00 | 99 | 1012.9 |
| 20260906092825 | 21 | 103 | 0.0 | 0.0 | 0.00 | 0.00 | 0.00 | 99 | 1012.9 |
| 20260906092320 | 21 | 104 | 0.0 | 0.0 | 0.00 | 0.00 | 0.00 | 99 | 1012.8 |
| 20260906091816 | 21 | 104 | 0.0 | 0.0 | 0.00 | 0.00 | 0.00 | 99 | 1012.9 |
| 20260906091311 | 21 | 104 | 0.0 | 0.0 | 0.00 | 0.00 | 0.00 | 99 | 1012.7 |
| 20260906090808 | 21 | 104 | 0.0 | 0.0 | 0.00 | 0.00 | 0.00 | 99 | 1013.0 |
| 20260906090307 | 21 | 106 | 0.0 | 0.0 | 0.00 | 0.00 | 0.00 | 99 | 1013.0 |
| 20260906085806 | 21 | 106 | 0.0 | 0.0 | 0.00 | 0.00 | 0.00 | 99 | 1012.8 |
| 20260906085259 | 22 | 104 | 0.0 | 0.0 | 0.00 | 0.00 | 0.00 | 99 | 1012.8 |
| 20260906084755 | 21 | 102 | 0.0 | 0.0 | 0.00 | 0.00 | 0.00 | 99 | 1012.6 |
| 20260906084255 | 22 | 102 | 0.0 | 0.0 | 0.00 | 0.00 | 0.00 | 99 | 1012.7 |
| 20260906083749 | 22 | 106 | 0.0 | 0.0 | 0.00 | 0.00 | 0.00 | 99 | 1012.8 |
| 20260906083244 | 22 | 104 | 0.0 | 0.0 | 0.00 | 0.00 | 0.00 | 99 | 1012.4 |
| 20260906082734 | 22 | 103 | 0.0 | 0.0 | 0.00 | 0.00 | 0.00 | 99 | 1012.4 |
| 20260906082229 | 22 | 105 | 0.0 | 0.0 | 0.00 | 0.00 | 0.00 | 99 | 1012.5 |
| 20260906081725 | 22 | 103 | 0.0 | 0.0 | 0.00 | 0.00 | 0.00 | 99 | 1012.3 |
| 20260906081225 | 22 | 101 | 0.0 | 0.0 | 0.00 | 0.00 | 0.00 | 99 | 1012.8 |
| 20260906080721 | 22 | 99 | 0.0 | 0.0 | 0.00 | 0.00 | 0.00 | 99 | 1012.6 |
| 20260906080218 | 22 | 98 | 0.0 | 0.0 | 0.00 | 0.00 | 0.00 | 99 | 1012.5 |
| 20260906075712 | 22 | 98 | 0.0 | 0.0 | 0.00 | 0.00 | 0.00 | 99 | 1012.3 |
| 20260906075207 | 22 | 96 | 0.0 | 0.0 | 0.00 | 0.00 | 0.00 | 99 | 1012.6 |
| 20260906074702 | 22 | 104 | 0.0 | 0.0 | 0.00 | 0.00 | 0.00 | 99 | 1012.5 |
| 20260906074201 | 22 | 106 | 0.0 | 0.0 | 0.00 | 0.00 | 0.00 | 99 | 1012.5 |
| 20260906073656 | 22 | 103 | 0.0 | 0.0 | 0.00 | 0.00 | 0.00 | 99 | 1012.7 |
| 20260906073151 | 22 | 104 | 0.0 | 0.0 | 0.00 | 0.00 | 0.00 | 99 | 1012.6 |
| 20260906072646 | 22 | 107 | 0.0 | 0.0 | 0.00 | 0.00 | 0.00 | 99 | 1012.6 |
| 20260906072136 | 22 | 103 | 0.0 | 0.0 | 0.00 | 0.00 | 0.00 | 99 | 1012.5 |
| 20260906071632 | 22 | 93 | 0.0 | 1.6 | 0.00 | 0.00 | 0.00 | 99 | 1012.6 |
| 20260906071126 | 22 | 78 | 1.6 | 1.6 | 0.00 | 0.00 | 0.00 | 99 | 1012.7 |
| 20260906070623 | 22 | 76 | 0.0 | 0.0 | 0.00 | 0.00 | 0.00 | 99 | 1012.8 |
| 20260906070118 | 22 | 103 | 0.0 | 0.0 | 0.00 | 0.00 | 0.00 | 99 | 1012.6 |
| 20260906065618 | 22 | 87 | 0.0 | 0.0 | 0.00 | 0.00 | 0.00 | 99 | 1012.6 |
| 20260906065113 | 22 | 90 | 0.0 | 0.0 | 0.00 | 0.00 | 0.00 | 99 | 1012.6 |
| 20260906064609 | 22 | 89 | 0.0 | 0.0 | 0.00 | 0.00 | 0.00 | 99 | 1012.7 |
| 20260906064104 | 22 | 95 | 0.0 | 0.0 | 0.00 | 0.00 | 0.00 | 99 | 1012.6 |
| 20260906063559 | 22 | 104 | 0.0 | 0.0 | 0.00 | 0.00 | 0.00 | 99 | 1012.8 |
| 20260906063055 | 22 | 105 | 0.0 | 0.0 | 0.00 | 0.00 | 0.00 | 99 | 1012.6 |
| 20260906062551 | 22 | 103 | 0.0 | 0.0 | 0.00 | 0.00 | 0.00 | 99 | 1012.8 |
| 20260906062044 | 22 | 100 | 0.0 | 0.0 | 0.00 | 0.00 | 0.00 | 99 | 1013.1 |
| 20260906061541 | 22 | 102 | 0.0 | 0.0 | 0.00 | 0.00 | 0.00 | 99 | 1012.9 |
| 20260906061040 | 22 | 104 | 0.0 | 0.0 | 0.00 | 0.00 | 0.00 | 99 | 1013.0 |
| 20260906060537 | 22 | 105 | 0.0 | 0.0 | 0.00 | 0.00 | 0.00 | 99 | 1013.0 |
| 20260906060034 | 22 | 105 | 0.0 | 0.0 | 0.00 | 0.00 | 0.00 | 99 | 1013.0 |
| 20260906055529 | 22 | 103 | 0.0 | 0.0 | 0.00 | 0.00 | 0.00 | 99 | 1013.2 |
| 20260906055025 | 22 | 100 | 0.0 | 0.0 | 0.00 | 0.00 | 0.00 | 99 | 1013.4 |
| 20260906054525 | 22 | 98 | 0.0 | 0.0 | 0.00 | 0.00 | 0.00 | 99 | 1013.3 |
| 20260906054020 | 22 | 104 | 0.0 | 0.0 | 0.00 | 0.00 | 0.00 | 99 | 1013.6 |
| 20260906053516 | 22 | 106 | 0.0 | 0.0 | 0.00 | 0.00 | 0.00 | 99 | 1013.5 |
| 20260906053012 | 22 | 115 | 0.0 | 0.0 | 0.00 | 0.00 | 0.00 | 99 | 1013.6 |
| 20260906052507 | 22 | 98 | 0.0 | 0.0 | 0.00 | 0.00 | 0.00 | 99 | 1013.6 |
| 20260906052004 | 22 | 100 | 0.0 | 0.0 | 0.00 | 0.00 | 0.00 | 99 | 1013.2 |
| 20260906051459 | 22 | 97 | 0.0 | 0.0 | 0.00 | 0.00 | 0.00 | 99 | 1013.3 |
| 20260906050954 | 22 | 98 | 0.0 | 0.0 | 0.00 | 0.00 | 0.00 | 99 | 1013.5 |
| 20260906050454 | 22 | 98 | 0.0 | 0.0 | 0.00 | 0.00 | 0.00 | 99 | 1013.4 |
| 20260906045948 | 22 | 93 | 0.0 | 0.0 | 0.00 | 0.00 | 0.00 | 99 | 1013.5 |
| 20260906045447 | 22 | 106 | 0.0 | 0.0 | 0.00 | 0.00 | 0.00 | 99 | 1013.5 |
| 20260906044943 | 22 | 100 | 0.0 | 0.0 | 0.00 | 0.00 | 0.00 | 99 | 1013.8 |
| 20260906044438 | 22 | 88 | 0.0 | 0.0 | 0.00 | 0.00 | 0.00 | 99 | 1013.6 |
| 20260906043933 | 22 | 104 | 0.0 | 0.0 | 0.00 | 0.00 | 0.00 | 99 | 1013.5 |
| 20260906043429 | 22 | 92 | 0.0 | 0.0 | 0.00 | 0.00 | 0.00 | 99 | 1013.7 |
| 20260906042924 | 22 | 105 | 0.0 | 0.0 | 0.00 | 0.00 | 0.00 | 99 | 1013.6 |
| 20260906042418 | 22 | 106 | 0.0 | 0.0 | 0.00 | 0.00 | 0.00 | 99 | 1013.5 |
| 20260906041913 | 22 | 93 | 0.0 | 0.0 | 0.00 | 0.00 | 0.00 | 99 | 1013.7 |
| 20260906041409 | 22 | 104 | 0.0 | 0.0 | 0.00 | 0.00 | 0.00 | 99 | 1013.7 |
| 20260906040909 | 22 | 111 | 0.0 | 0.0 | 0.00 | 0.00 | 0.00 | 99 | 1013.8 |
| 20260906040404 | 22 | 102 | 0.0 | 0.0 | 0.00 | 0.00 | 0.00 | 99 | 1013.8 |
| 20260906035859 | 22 | 105 | 0.0 | 0.0 | 0.00 | 0.28 | 0.28 | 99 | 1013.8 |
| 20260906035355 | 22 | 107 | 0.0 | 0.0 | 0.00 | 0.28 | 0.28 | 99 | 1014.0 |
| 20260906034850 | 22 | 86 | 0.0 | 0.0 | 0.00 | 0.28 | 0.28 | 99 | 1014.0 |
| 20260906034344 | 22 | 105 | 0.0 | 0.0 | 0.00 | 0.28 | 0.28 | 99 | 1013.9 |
| 20260906033840 | 22 | 96 | 0.0 | 0.0 | 0.00 | 0.28 | 0.28 | 99 | 1014.2 |
| 20260906033339 | 22 | 89 | 0.0 | 0.0 | 0.00 | 0.28 | 0.28 | 99 | 1014.1 |
| 20260906032836 | 22 | 107 | 0.0 | 0.0 | 0.00 | 0.28 | 0.28 | 99 | 1013.9 |
| 20260906032332 | 22 | 101 | 0.0 | 0.0 | 0.00 | 0.28 | 0.28 | 99 | 1013.9 |
| 20260906031827 | 22 | 105 | 0.0 | 0.0 | 0.00 | 0.28 | 0.28 | 99 | 1013.8 |
| 20260906031322 | 22 | 96 | 0.0 | 0.0 | 0.00 | 0.28 | 0.28 | 99 | 1013.8 |
| 20260906030822 | 22 | 110 | 0.0 | 0.0 | 0.00 | 0.28 | 0.28 | 99 | 1014.1 |
| 20260906030317 | 22 | 111 | 0.0 | 0.0 | 0.00 | 0.28 | 0.28 | 99 | 1014.0 |
| 20260906025817 | 23 | 86 | 0.0 | 0.0 | 0.00 | 0.28 | 0.28 | 99 | 1013.9 |
| 20260906025311 | 23 | 104 | 0.0 | 0.0 | 0.00 | 0.28 | 0.28 | 99 | 1014.4 |
| 20260906024810 | 23 | 107 | 0.0 | 0.0 | 0.00 | 0.28 | 0.28 | 99 | 1014.1 |
| 20260906024304 | 23 | 104 | 0.0 | 0.0 | 0.00 | 0.28 | 0.28 | 99 | 1014.1 |
| 20260906023759 | 23 | 99 | 0.0 | 0.0 | 0.00 | 0.28 | 0.28 | 99 | 1013.8 |
| 20260906023254 | 23 | 89 | 0.0 | 0.0 | 0.00 | 0.28 | 0.28 | 99 | 1013.7 |
| 20260906022750 | 23 | 103 | 0.0 | 0.0 | 0.00 | 0.28 | 0.28 | 98 | 1013.8 |
| 20260906022245 | 23 | 104 | 0.0 | 0.0 | 0.00 | 0.28 | 0.28 | 98 | 1013.8 |
| 20260906021741 | 23 | 105 | 0.0 | 0.0 | 0.00 | 0.28 | 0.28 | 98 | 1013.9 |
| 20260906021240 | 23 | 104 | 0.0 | 0.0 | 0.00 | 0.28 | 0.28 | 98 | 1013.9 |
| 20260906020735 | 23 | 99 | 0.0 | 0.0 | 0.00 | 0.28 | 0.28 | 98 | 1013.9 |
| 20260906020235 | 23 | 106 | 0.0 | 0.0 | 0.00 | 0.28 | 0.28 | 98 | 1013.9 |
| 20260906015730 | 23 | 103 | 0.0 | 0.0 | 0.00 | 0.28 | 0.28 | 98 | 1014.2 |
| 20260906015228 | 23 | 110 | 0.0 | 0.0 | 0.00 | 0.28 | 0.28 | 98 | 1013.8 |
| 20260906014723 | 23 | 97 | 0.0 | 0.0 | 0.00 | 0.28 | 0.28 | 98 | 1013.7 |
| 20260906014219 | 23 | 104 | 0.0 | 0.0 | 0.00 | 0.28 | 0.28 | 98 | 1013.6 |
| 20260906013715 | 23 | 103 | 0.0 | 0.0 | 0.00 | 0.28 | 0.28 | 98 | 1013.6 |
| 20260906013214 | 23 | 105 | 0.0 | 0.0 | 0.00 | 0.28 | 0.28 | 98 | 1013.8 |
| 20260906012710 | 23 | 99 | 0.0 | 0.0 | 0.00 | 0.28 | 0.28 | 98 | 1013.2 |
| 20260906012204 | 23 | 109 | 0.0 | 0.0 | 0.00 | 0.28 | 0.28 | 98 | 1013.3 |
| 20260906011700 | 23 | 95 | 0.0 | 0.0 | 0.00 | 0.28 | 0.28 | 98 | 1013.1 |
| 20260906011154 | 23 | 97 | 0.0 | 0.0 | 0.00 | 0.28 | 0.28 | 98 | 1012.7 |
| 20260906010650 | 23 | 95 | 0.0 | 0.0 | 0.00 | 0.28 | 0.28 | 98 | 1013.0 |
| 20260906010146 | 23 | 104 | 0.0 | 0.0 | 0.00 | 0.28 | 0.28 | 98 | 1013.0 |
| 20260906005645 | 23 | 118 | 0.0 | 1.6 | 0.00 | 0.28 | 0.28 | 98 | 1013.2 |
| 20260906005144 | 23 | 94 | 0.0 | 0.0 | 0.00 | 0.28 | 0.28 | 98 | 1012.9 |
| 20260906004644 | 23 | 113 | 0.0 | 0.0 | 0.00 | 0.28 | 0.28 | 97 | 1012.6 |
| 20260906004139 | 23 | 92 | 0.0 | 0.0 | 0.00 | 0.28 | 0.28 | 97 | 1012.6 |
| 20260906003634 | 23 | 100 | 0.0 | 0.0 | 0.00 | 0.28 | 0.28 | 97 | 1012.4 |
| 20260906003130 | 23 | 102 | 0.0 | 0.0 | 0.00 | 0.28 | 0.28 | 97 | 1012.3 |
| 20260906002625 | 23 | 98 | 0.0 | 1.6 | 0.00 | 0.28 | 0.28 | 97 | 1012.4 |
| 20260906002119 | 23 | 94 | 0.0 | 0.0 | 0.00 | 0.28 | 0.28 | 97 | 1012.6 |
| 20260906001614 | 23 | 88 | 0.0 | 1.6 | 0.00 | 0.28 | 0.28 | 97 | 1012.6 |
| 20260906001109 | 23 | 103 | 0.0 | 0.0 | 0.00 | 0.28 | 0.28 | 97 | 1012.8 |
| 20260906000605 | 22 | 104 | 0.0 | 0.0 | 0.00 | 0.28 | 0.28 | 96 | 1012.8 |
| 20260906000100 | 23 | 110 | 0.0 | 1.6 | 0.00 | 0.28 | 0.28 | 96 | 1013.2 |
| 20260905235559 | 23 | 95 | 1.6 | 3.2 | 0.00 | 0.28 | 0.28 | 96 | 1012.8 |
| 20260905235054 | 22 | 77 | 1.6 | 3.2 | 0.00 | 0.28 | 0.28 | 96 | 1012.9 |
| 20260905234550 | 22 | 81 | 0.0 | 0.0 | 0.00 | 0.28 | 0.28 | 96 | 1012.4 |
| 20260905234044 | 22 | 97 | 0.0 | 0.0 | 0.00 | 0.28 | 0.28 | 95 | 1012.7 |
| 20260905233539 | 22 | 107 | 0.0 | 0.0 | 0.00 | 0.28 | 0.28 | 95 | 1012.7 |
| 20260905233039 | 23 | 100 | 0.0 | 0.0 | 0.18 | 0.28 | 0.28 | 95 | 1012.8 |
| 20260905232534 | 23 | 89 | 1.6 | 1.6 | 0.18 | 0.28 | 0.28 | 94 | 1012.8 |
| 20260905232030 | 22 | 106 | 0.0 | 1.6 | 0.30 | 0.25 | 0.25 | 94 | 1013.0 |
| 20260905231525 | 22 | 107 | 0.0 | 0.0 | 0.89 | 0.25 | 0.25 | 93 | 1013.0 |
| 20260905231021 | 23 | 113 | 1.6 | 1.6 | 0.89 | 0.20 | 0.20 | 92 | 1013.1 |
| 20260905230520 | 24 | 153 | 1.6 | 1.6 | 0.30 | 0.10 | 0.10 | 91 | 1013.4 |
| 20260905230019 | 25 | 98 | 0.0 | 1.6 | 0.00 | 0.05 | 0.05 | 90 | 1013.7 |
| 20260905225514 | 26 | 103 | 1.6 | 1.6 | 0.13 | 0.05 | 0.05 | 87 | 1014.0 |
| 20260905225009 | 27 | 61 | 4.8 | 11.3 | 0.30 | 0.05 | 0.05 | 82 | 1013.7 |
| 20260905224504 | 30 | 132 | 1.6 | 1.6 | 0.18 | 0.03 | 0.03 | 77 | 1013.3 |
| 20260905224003 | 31 | 200 | 3.2 | 4.8 | 0.00 | 0.00 | 0.00 | 66 | 1013.0 |
| 20260905223501 | 32 | 124 | 1.6 | 3.2 | 0.00 | 0.00 | 0.00 | 60 | 1012.6 |
| 20260905222956 | 33 | 143 | 1.6 | 1.6 | 0.00 | 0.00 | 0.00 | 57 | 1012.2 |
| 20260905222456 | 33 | 136 | 1.6 | 1.6 | 0.00 | 0.00 | 0.00 | 56 | 1011.8 |
| 20260905221951 | 34 | 98 | 1.6 | 3.2 | 0.00 | 0.00 | 0.00 | 54 | 1011.6 |
| 20260905221447 | 35 | 201 | 1.6 | 1.6 | 0.00 | 0.00 | 0.00 | 52 | 1011.4 |
| 20260905220943 | 36 | 99 | 0.0 | 0.0 | 0.00 | 0.00 | 0.00 | 48 | 1011.6 |
| 20260905220439 | 36 | 95 | 0.0 | 1.6 | 0.00 | 0.00 | 0.00 | 46 | 1011.3 |
| 20260905215938 | 36 | 103 | 0.0 | 0.0 | 0.00 | 0.00 | 0.00 | 47 | 1011.2 |
| 20260905215434 | 37 | 108 | 0.0 | 0.0 | 0.00 | 0.00 | 0.00 | 47 | 1010.9 |
| 20260905214930 | 36 | 87 | 0.0 | 0.0 | 0.00 | 0.00 | 0.00 | 46 | 1010.9 |
| 20260905214426 | 36 | 111 | 0.0 | 0.0 | 0.00 | 0.00 | 0.00 | 47 | 1010.8 |
| 20260905213926 | 36 | 103 | 0.0 | 0.0 | 0.00 | 0.00 | 0.00 | 47 | 1010.9 |
| 20260905213422 | 37 | 104 | 0.0 | 0.0 | 0.00 | 0.00 | 0.00 | 47 | 1010.9 |
| 20260905212917 | 37 | 96 | 0.0 | 0.0 | 0.00 | 0.00 | 0.00 | 46 | 1011.3 |
| 20260905212412 | 38 | 108 | 0.0 | 0.0 | 0.00 | 0.00 | 0.00 | 44 | 1011.4 |
| 20260905211911 | 38 | 101 | 0.0 | 0.0 | 0.00 | 0.00 | 0.00 | 43 | 1011.6 |
| 20260905211407 | 38 | 108 | 0.0 | 0.0 | 0.00 | 0.00 | 0.00 | 43 | 1011.4 |
| 20260905210903 | 38 | 115 | 0.0 | 0.0 | 0.00 | 0.00 | 0.00 | 43 | 1011.7 |
| 20260905210357 | 38 | 93 | 0.0 | 1.6 | 0.00 | 0.00 | 0.00 | 43 | 1011.7 |
| 20260905205856 | 38 | 108 | 0.0 | 1.6 | 0.00 | 0.00 | 0.00 | 44 | 1011.8 |
| 20260905205351 | 38 | 110 | 0.0 | 0.0 | 0.00 | 0.00 | 0.00 | 43 | 1011.6 |
| 20260905204850 | 38 | 111 | 0.0 | 0.0 | 0.00 | 0.00 | 0.00 | 44 | 1011.8 |
| 20260905204347 | 38 | 106 | 0.0 | 0.0 | 0.00 | 0.00 | 0.00 | 45 | 1011.7 |
| 20260905203845 | 37 | 118 | 0.0 | 0.0 | 0.00 | 0.00 | 0.00 | 45 | 1011.6 |
| 20260905203341 | 37 | 111 | 1.6 | 1.6 | 0.00 | 0.00 | 0.00 | 46 | 1011.6 |
| 20260905202837 | 37 | 118 | 1.6 | 1.6 | 0.00 | 0.00 | 0.00 | 47 | 1011.4 |
| 20260905202331 | 37 | 122 | 1.6 | 1.6 | 0.00 | 0.00 | 0.00 | 47 | 1011.7 |
| 20260905201827 | 37 | 106 | 0.0 | 1.6 | 0.00 | 0.00 | 0.00 | 47 | 1011.7 |
| 20260905201322 | 37 | 117 | 1.6 | 1.6 | 0.00 | 0.00 | 0.00 | 47 | 1011.8 |
| 20260905200816 | 37 | 91 | 4.8 | 4.8 | 0.00 | 0.00 | 0.00 | 47 | 1011.8 |
| 20260905200313 | 36 | 116 | 1.6 | 1.6 | 0.00 | 0.00 | 0.00 | 49 | 1012.0 |
| 20260905195810 | 36 | 95 | 1.6 | 1.6 | 0.00 | 0.00 | 0.00 | 49 | 1012.2 |
| 20260905195307 | 36 | 95 | 1.6 | 1.6 | 0.00 | 0.00 | 0.00 | 49 | 1012.2 |
| 20260905194802 | 36 | 99 | 0.0 | 0.0 | 0.00 | 0.00 | 0.00 | 48 | 1012.1 |
| 20260905194300 | 36 | 91 | 0.0 | 0.0 | 0.00 | 0.00 | 0.00 | 50 | 1012.4 |
| 20260905193755 | 36 | 90 | 1.6 | 3.2 | 0.00 | 0.00 | 0.00 | 48 | 1012.3 |
| 20260905193249 | 37 | 105 | 1.6 | 3.2 | 0.00 | 0.00 | 0.00 | 47 | 1012.3 |
| 20260905192739 | 37 | 89 | 1.6 | 4.8 | 0.00 | 0.00 | 0.00 | 45 | 1012.4 |
| 20260905192236 | 38 | 143 | 1.6 | 1.6 | 0.00 | 0.00 | 0.00 | 45 | 1012.1 |
| 20260905191735 | 37 | 98 | 1.6 | 1.6 | 0.00 | 0.00 | 0.00 | 47 | 1012.2 |
| 20260905191233 | 37 | 55 | 3.2 | 3.2 | 0.00 | 0.00 | 0.00 | 47 | 1012.5 |
| 20260905190732 | 36 | 89 | 1.6 | 3.2 | 0.00 | 0.00 | 0.00 | 48 | 1012.6 |
| 20260905190231 | 36 | 114 | 0.0 | 0.0 | 0.00 | 0.00 | 0.00 | 51 | 1012.3 |
| 20260905185730 | 35 | 121 | 0.0 | 0.0 | 0.00 | 0.00 | 0.00 | 52 | 1012.6 |
| 20260905185224 | 35 | 92 | 0.0 | 0.0 | 0.00 | 0.00 | 0.00 | 52 | 1012.8 |
| 20260905184719 | 35 | 112 | 0.0 | 0.0 | 0.00 | 0.00 | 0.00 | 51 | 1012.9 |
| 20260905184218 | 35 | 106 | 0.0 | 0.0 | 0.00 | 0.00 | 0.00 | 52 | 1012.8 |
| 20260905183712 | 35 | 110 | 1.6 | 1.6 | 0.00 | 0.00 | 0.00 | 53 | 1013.0 |
| 20260905183207 | 36 | 94 | 1.6 | 1.6 | 0.00 | 0.00 | 0.00 | 55 | 1012.9 |
| 20260905182701 | 36 | 74 | 1.6 | 1.6 | 0.00 | 0.00 | 0.00 | 51 | 1013.0 |
| 20260905182201 | 37 | 112 | 0.0 | 0.0 | 0.00 | 0.00 | 0.00 | 48 | 1013.1 |
| 20260905181656 | 37 | 344 | 1.6 | 1.6 | 0.00 | 0.00 | 0.00 | 48 | 1013.1 |
| 20260905181149 | 37 | 62 | 1.6 | 3.2 | 0.00 | 0.00 | 0.00 | 48 | 1013.3 |
| 20260905180644 | 37 | 19 | 3.2 | 3.2 | 0.00 | 0.00 | 0.00 | 49 | 1013.3 |
| 20260905180140 | 36 | 93 | 1.6 | 1.6 | 0.00 | 0.00 | 0.00 | 51 | 1013.5 |
| 20260905175638 | 35 | 92 | 3.2 | 3.2 | 0.00 | 0.00 | 0.00 | 52 | 1013.6 |
| 20260905175134 | 35 | 105 | 0.0 | 0.0 | 0.00 | 0.00 | 0.00 | 53 | 1013.4 |
| 20260905174630 | 35 | 105 | 0.0 | 0.0 | 0.00 | 0.00 | 0.00 | 53 | 1013.4 |
| 20260905174125 | 35 | 104 | 0.0 | 0.0 | 0.00 | 0.00 | 0.00 | 53 | 1013.9 |
| 20260905173621 | 35 | 100 | 0.0 | 0.0 | 0.00 | 0.00 | 0.00 | 53 | 1014.0 |
| 20260905173117 | 36 | 106 | 0.0 | 0.0 | 0.00 | 0.00 | 0.00 | 51 | 1013.8 |
| 20260905172615 | 36 | 114 | 0.0 | 1.6 | 0.00 | 0.00 | 0.00 | 51 | 1013.9 |
| 20260905172110 | 36 | 103 | 1.6 | 3.2 | 0.00 | 0.00 | 0.00 | 51 | 1013.9 |
| 20260905171607 | 36 | 106 | 0.0 | 1.6 | 0.00 | 0.00 | 0.00 | 51 | 1013.7 |
| 20260905171102 | 36 | 97 | 1.6 | 1.6 | 0.00 | 0.00 | 0.00 | 52 | 1013.8 |
| 20260905170559 | 36 | 105 | 1.6 | 3.2 | 0.00 | 0.00 | 0.00 | 52 | 1014.2 |
| 20260905170054 | 35 | 176 | 3.2 | 3.2 | 0.00 | 0.00 | 0.00 | 52 | 1014.0 |
| 20260905165549 | 35 | 185 | 3.2 | 3.2 | 0.00 | 0.00 | 0.00 | 52 | 1014.0 |
| 20260905165044 | 35 | 119 | 0.0 | 1.6 | 0.00 | 0.00 | 0.00 | 53 | 1014.3 |
| 20260905164543 | 35 | 79 | 1.6 | 1.6 | 0.00 | 0.00 | 0.00 | 54 | 1014.5 |
| 20260905164038 | 35 | 81 | 1.6 | 1.6 | 0.00 | 0.00 | 0.00 | 56 | 1014.5 |
| 20260905163535 | 35 | 109 | 0.0 | 0.0 | 0.00 | 0.00 | 0.00 | 57 | 1014.5 |
| 20260905163031 | 34 | 107 | 0.0 | 1.6 | 0.00 | 0.00 | 0.00 | 57 | 1014.6 |
| 20260905162526 | 35 | 114 | 1.6 | 1.6 | 0.00 | 0.00 | 0.00 | 57 | 1015.0 |
| 20260905162020 | 35 | 119 | 1.6 | 1.6 | 0.00 | 0.00 | 0.00 | 56 | 1014.9 |
| 20260905161515 | 34 | 107 | 0.0 | 1.6 | 0.00 | 0.00 | 0.00 | 58 | 1015.0 |
| 20260905161012 | 33 | 98 | 0.0 | 0.0 | 0.00 | 0.00 | 0.00 | 58 | 1015.1 |
| 20260905160505 | 33 | 122 | 1.6 | 1.6 | 0.00 | 0.00 | 0.00 | 59 | 1015.4 |
| 20260905160000 | 33 | 85 | 0.0 | 0.0 | 0.00 | 0.00 | 0.00 | 59 | 1015.2 |
| 20260905155455 | 33 | 107 | 0.0 | 1.6 | 0.00 | 0.00 | 0.00 | 57 | 1015.3 |
| 20260905154953 | 33 | 71 | 1.6 | 1.6 | 0.00 | 0.00 | 0.00 | 58 | 1015.4 |
| 20260905154449 | 33 | 51 | 0.0 | 0.0 | 0.00 | 0.00 | 0.00 | 59 | 1015.4 |
| 20260905153944 | 33 | 114 | 0.0 | 0.0 | 0.00 | 0.00 | 0.00 | 62 | 1015.2 |
| 20260905153440 | 32 | 99 | 0.0 | 0.0 | 0.00 | 0.00 | 0.00 | 63 | 1015.4 |
| 20260905152939 | 32 | 117 | 1.6 | 1.6 | 0.00 | 0.00 | 0.00 | 65 | 1015.5 |
| 20260905152439 | 32 | 124 | 1.6 | 1.6 | 0.00 | 0.00 | 0.00 | 67 | 1015.6 |
| 20260905151934 | 32 | 105 | 0.0 | 1.6 | 0.00 | 0.00 | 0.00 | 67 | 1015.4 |
| 20260905151430 | 31 | 81 | 1.6 | 1.6 | 0.00 | 0.00 | 0.00 | 69 | 1015.7 |
| 20260905150925 | 31 | 98 | 0.0 | 0.0 | 0.00 | 0.00 | 0.00 | 69 | 1015.6 |
| 20260905150424 | 31 | 8 | 1.6 | 4.8 | 0.00 | 0.00 | 0.00 | 70 | 1015.7 |
| 20260905145921 | 31 | 110 | 1.6 | 1.6 | 0.00 | 0.00 | 0.00 | 71 | 1015.6 |
| 20260905145415 | 31 | 76 | 0.0 | 1.6 | 0.00 | 0.00 | 0.00 | 71 | 1015.8 |
| 20260905144915 | 30 | 104 | 0.0 | 0.0 | 0.00 | 0.00 | 0.00 | 74 | 1015.9 |
| 20260905144405 | 30 | 106 | 0.0 | 0.0 | 0.00 | 0.00 | 0.00 | 74 | 1016.0 |
| 20260905143903 | 30 | 106 | 0.0 | 0.0 | 0.00 | 0.00 | 0.00 | 77 | 1015.9 |
| 20260905143358 | 30 | 105 | 1.6 | 1.6 | 0.00 | 0.00 | 0.00 | 78 | 1015.9 |
| 20260905142857 | 29 | 89 | 0.0 | 1.6 | 0.00 | 0.00 | 0.00 | 80 | 1015.8 |
| 20260905142355 | 28 | 104 | 0.0 | 0.0 | 0.00 | 0.00 | 0.00 | 81 | 1016.0 |
| 20260905141852 | 28 | 100 | 0.0 | 0.0 | 0.00 | 0.00 | 0.00 | 81 | 1015.8 |
| 20260905141347 | 28 | 112 | 0.0 | 1.6 | 0.00 | 0.00 | 0.00 | 83 | 1016.0 |
| 20260905140843 | 28 | 102 | 0.0 | 0.0 | 0.00 | 0.00 | 0.00 | 84 | 1016.1 |
| 20260905140338 | 27 | 104 | 0.0 | 0.0 | 0.00 | 0.00 | 0.00 | 87 | 1016.0 |
| 20260905135836 | 27 | 87 | 1.6 | 1.6 | 0.00 | 0.00 | 0.00 | 89 | 1015.9 |
| 20260905135332 | 26 | 93 | 0.0 | 0.0 | 0.00 | 0.00 | 0.00 | 92 | 1016.1 |
| 20260905134827 | 26 | 97 | 0.0 | 0.0 | 0.00 | 0.00 | 0.00 | 94 | 1016.1 |
| 20260905134320 | 25 | 109 | 0.0 | 0.0 | 0.00 | 0.00 | 0.00 | 95 | 1016.1 |
| 20260905133815 | 25 | 53 | 1.6 | 1.6 | 0.00 | 0.00 | 0.00 | 96 | 1015.9 |
| 20260905133311 | 25 | 102 | 0.0 | 0.0 | 0.00 | 0.00 | 0.00 | 96 | 1016.2 |
| 20260905132809 | 25 | 95 | 0.0 | 0.0 | 0.00 | 0.00 | 0.00 | 97 | 1016.2 |
| 20260905132306 | 25 | 106 | 0.0 | 0.0 | 0.00 | 0.00 | 0.00 | 97 | 1016.1 |
| 20260905131800 | 25 | 21 | 1.6 | 1.6 | 0.00 | 0.00 | 0.00 | 97 | 1016.1 |
| 20260905131255 | 24 | 105 | 0.0 | 0.0 | 0.00 | 0.00 | 0.00 | 97 | 1016.5 |
| 20260905130750 | 24 | 97 | 0.0 | 0.0 | 0.00 | 0.00 | 0.00 | 97 | 1016.6 |
| 20260905130249 | 24 | 105 | 0.0 | 0.0 | 0.00 | 0.00 | 0.00 | 97 | 1016.7 |
| 20260905125744 | 23 | 107 | 0.0 | 0.0 | 0.00 | 0.00 | 0.00 | 97 | 1016.5 |
| 20260905125239 | 23 | 107 | 0.0 | 0.0 | 0.00 | 0.00 | 0.00 | 97 | 1016.4 |
| 20260905124736 | 23 | 117 | 0.0 | 0.0 | 0.00 | 0.00 | 0.00 | 97 | 1016.6 |
| 20260905124231 | 23 | 103 | 0.0 | 0.0 | 0.00 | 0.00 | 0.00 | 97 | 1016.7 |
| 20260905123726 | 23 | 105 | 0.0 | 0.0 | 0.00 | 0.00 | 0.00 | 97 | 1016.5 |
| 20260905123224 | 23 | 108 | 0.0 | 0.0 | 0.00 | 0.00 | 0.00 | 97 | 1016.3 |
| 20260905122723 | 23 | 108 | 0.0 | 0.0 | 0.00 | 0.00 | 0.00 | 97 | 1016.2 |
| 20260905122217 | 23 | 108 | 0.0 | 0.0 | 0.00 | 0.00 | 0.00 | 97 | 1016.4 |
| 20260905121712 | 23 | 106 | 0.0 | 0.0 | 0.00 | 0.00 | 0.00 | 97 | 1016.4 |
| 20260905121209 | 23 | 100 | 0.0 | 0.0 | 0.00 | 0.00 | 0.00 | 97 | 1016.3 |
| 20260905120707 | 23 | 107 | 0.0 | 0.0 | 0.00 | 0.00 | 0.00 | 97 | 1016.2 |
| 20260905120201 | 23 | 106 | 0.0 | 0.0 | 0.00 | 0.00 | 0.00 | 97 | 1016.1 |
| 20260905115656 | 22 | 106 | 0.0 | 0.0 | 0.00 | 0.00 | 0.00 | 97 | 1016.1 |
| 20260905115151 | 22 | 105 | 0.0 | 0.0 | 0.00 | 0.00 | 0.00 | 97 | 1016.3 |
| 20260905114651 | 22 | 105 | 0.0 | 0.0 | 0.00 | 0.00 | 0.00 | 97 | 1015.9 |
| 20260905114149 | 22 | 106 | 0.0 | 0.0 | 0.00 | 0.00 | 0.00 | 97 | 1015.9 |
| 20260905113644 | 22 | 106 | 0.0 | 0.0 | 0.00 | 0.00 | 0.00 | 97 | 1015.9 |
| 20260905113139 | 22 | 106 | 0.0 | 0.0 | 0.00 | 0.00 | 0.00 | 97 | 1015.6 |
| 20260905112633 | 22 | 106 | 0.0 | 0.0 | 0.00 | 0.00 | 0.00 | 97 | 1015.9 |
| 20260905112130 | 22 | 106 | 0.0 | 0.0 | 0.00 | 0.00 | 0.00 | 97 | 1015.5 |
| 20260905111624 | 22 | 106 | 0.0 | 0.0 | 0.00 | 0.00 | 0.00 | 97 | 1015.6 |
| 20260905111123 | 22 | 106 | 0.0 | 0.0 | 0.00 | 0.00 | 0.00 | 97 | 1015.6 |
| 20260905110622 | 22 | 106 | 0.0 | 0.0 | 0.00 | 0.00 | 0.00 | 97 | 1015.7 |
| 20260905110118 | 22 | 106 | 0.0 | 0.0 | 0.00 | 0.00 | 0.00 | 97 | 1015.8 |
| 20260905105618 | 22 | 106 | 0.0 | 0.0 | 0.00 | 0.00 | 0.00 | 97 | 1015.6 |
| 20260905105117 | 22 | 106 | 0.0 | 0.0 | 0.00 | 0.00 | 0.00 | 97 | 1015.6 |
| 20260905104612 | 22 | 106 | 0.0 | 0.0 | 0.00 | 0.00 | 0.00 | 97 | 1015.5 |
| 20260905104107 | 22 | 106 | 0.0 | 0.0 | 0.00 | 0.00 | 0.00 | 97 | 1015.4 |
| 20260905103602 | 22 | 104 | 0.0 | 0.0 | 0.00 | 0.00 | 0.00 | 97 | 1015.6 |
| 20260905103058 | 22 | 104 | 0.0 | 0.0 | 0.00 | 0.00 | 0.00 | 96 | 1015.3 |
| 20260905102548 | 22 | 104 | 0.0 | 0.0 | 0.00 | 0.00 | 0.00 | 96 | 1015.3 |
| 20260905102045 | 22 | 104 | 0.0 | 0.0 | 0.00 | 0.00 | 0.00 | 96 | 1015.4 |
| 20260905101543 | 22 | 105 | 0.0 | 0.0 | 0.00 | 0.00 | 0.00 | 96 | 1015.1 |
| 20260905101041 | 22 | 105 | 0.0 | 0.0 | 0.00 | 0.00 | 0.00 | 96 | 1015.1 |
| 20260905100538 | 22 | 105 | 0.0 | 0.0 | 0.00 | 0.00 | 0.00 | 96 | 1015.1 |
| 20260905100038 | 23 | 105 | 0.0 | 0.0 | 0.00 | 0.00 | 0.00 | 96 | 1015.3 |